TimeCDT,TemperatureF,Dew PointF,Humidity,Sea Level PressureIn,VisibilityMPH,Wind Direction,Wind SpeedMPH,Gust SpeedMPH,PrecipitationIn,Events,Conditions,WindDirDegrees,DateUTC
12:52 AM,36.0,32.0,86,29.96,-9999.0,NW,10.4,-,N/A,,Unknown,320,2012-10-14 05:52:00
1:52 AM,36.0,32.0,86,29.95,-9999.0,NNW,6.9,-,N/A,,Unknown,330,2012-10-14 06:52:00
2:52 AM,33.1,30.0,89,29.96,-9999.0,NNW,6.9,-,N/A,,Unknown,340,2012-10-14 07:52:00
3:52 AM,32.0,30.0,92,29.96,-9999.0,NNW,6.9,-,N/A,,Unknown,340,2012-10-14 08:52:00
4:52 AM,34.0,32.0,92,29.99,-9999.0,Calm,Calm,-,N/A,,Unknown,0,2012-10-14 09:52:00
5:52 AM,33.1,30.0,89,29.99,-9999.0,Calm,Calm,-,N/A,,Unknown,0,2012-10-14 10:52:00
6:52 AM,34.0,32.0,92,30.00,-9999.0,North,4.6,-,N/A,,Unknown,10,2012-10-14 11:52:00
7:52 AM,36.0,33.1,89,30.01,-9999.0,West,4.6,-,N/A,,Unknown,280,2012-10-14 12:52:00
8:52 AM,37.0,34.0,89,30.02,-9999.0,Variable,3.5,-,N/A,,Unknown,0,2012-10-14 13:52:00
9:52 AM,42.1,36.0,79,30.01,-9999.0,Calm,Calm,-,N/A,,Unknown,0,2012-10-14 14:52:00
10:52 AM,48.9,39.9,71,30.01,-9999.0,Variable,4.6,-,N/A,,Unknown,0,2012-10-14 15:52:00
11:52 AM,55.0,39.9,57,29.99,-9999.0,West,4.6,-,N/A,,Unknown,280,2012-10-14 16:52:00
12:52 PM,57.9,39.9,51,29.97,-9999.0,Variable,5.8,-,N/A,,Unknown,0,2012-10-14 17:52:00
1:52 PM,61.0,39.9,46,29.95,-9999.0,NW,10.4,-,N/A,,Unknown,310,2012-10-14 18:52:00
2:52 PM,62.1,39.0,43,29.93,-9999.0,Variable,4.6,-,N/A,,Unknown,0,2012-10-14 19:52:00
3:52 PM,64.0,37.9,38,29.92,-9999.0,Variable,5.8,-,N/A,,Unknown,0,2012-10-14 20:52:00
4:52 PM,64.9,39.0,39,29.90,-9999.0,South,6.9,-,N/A,,Unknown,190,2012-10-14 21:52:00
5:52 PM,64.0,39.0,40,29.91,-9999.0,WNW,9.2,21.9,N/A,,Unknown,290,2012-10-14 22:52:00
6:52 PM,57.0,37.9,49,29.92,-9999.0,WNW,3.5,-,N/A,,Unknown,300,2012-10-14 23:52:00
7:52 PM,51.1,37.0,59,29.92,-9999.0,WNW,5.8,-,N/A,,Unknown,290,2012-10-15 00:52:00
8:52 PM,48.0,37.0,66,29.94,-9999.0,Calm,Calm,-,N/A,,Unknown,0,2012-10-15 01:52:00
9:52 PM,46.0,36.0,68,29.93,-9999.0,Calm,Calm,-,N/A,,Unknown,0,2012-10-15 02:52:00
10:52 PM,45.0,39.0,80,29.90,-9999.0,Calm,Calm,-,N/A,,Unknown,0,2012-10-15 03:52:00
11:52 PM,44.1,39.9,85,29.88,-9999.0,Calm,Calm,-,N/A,,Unknown,0,2012-10-15 04:52:00